Blue Canyon, CA

3:22 AM PDT on June 19, 2018 (GMT -0700)
Blue Canyon-Nyack

Weather History for KBLU - October, 2017

Change the Weather History Date:

Sunday, October 8, 2017

  Actual Average Record
Temperature  
Mean Temperature 56 °F -  
Max Temperature 68 °F 64 °F 82 °F (1996)
Min Temperature 45 °F 47 °F 29 °F (1949)
Degree Days  
Heating Degree Days 10    
Growing Degree Days 6 (Base 50)    
Moisture  
Dew Point 22 °F    
Average Humidity 26    
Maximum Humidity 32    
Minimum Humidity 19    
Precipitation  
Precipitation 0.00 in - - ()
Sea Level Pressure  
Sea Level Pressure 29.79 in    
Wind  
Wind Speed 5 mph (NE)    
Max Wind Speed 20 mph    
Max Gust Speed 38 mph    
Visibility 10 miles    
Events      
Averages and records for this station are not official NWS values.
T = Trace of Precipitation, MM = Missing Value Source: NWS Daily Summary

Daily Weather History Graph

Daily Weather History Graph

Search for Another Location

Airport or City:

Astronomy

Oct. 08, 2017 Rise Set
Actual Time 7:05 AM PDT 6:33 PM PDT
Civil Twilight 6:39 AM PDT 7:00 PM PDT
Nautical Twilight 6:08 AM PDT 7:31 PM PDT
Astronomical Twilight 5:37 AM PDT 8:02 PM PDT
Moon 9:00 PM PDT (10/8) 10:13 AM PDT (10/8)
Length of Visible Light 12h 21m
Length of Day
11h 27m
Waning Gibbous, 88% of the Moon is Illuminated
Oct 8
Waning Gibbous
Oct 12
Last Quarter
Oct 19
New
Oct 27
First Quarter
Nov 3
Full

Hourly Weather History & Observations

Time (PDT) Temp. Windchill Dew Point Humidity Pressure Visibility Wind Dir Wind Speed Gust Speed Precip Events Conditions
12:52 AM 57.9 °F - 27.0 °F 31% 29.76 in 10.0 mi East 3.5 mph - N/A   Clear
2:52 AM 57.0 °F - 24.1 °F 28% 29.75 in 10.0 mi Calm Calm - N/A   Clear
3:52 AM 57.9 °F - 21.9 °F 25% 29.73 in 10.0 mi Calm Calm - N/A   Clear
4:52 AM 55.0 °F - 21.9 °F 28% 29.74 in 10.0 mi Calm Calm - N/A   Clear
5:52 AM 55.9 °F - 23.0 °F 28% 29.75 in 10.0 mi North 4.6 mph - N/A   Clear
6:52 AM 55.9 °F - 21.0 °F 26% 29.78 in 10.0 mi NE 4.6 mph - N/A   Clear
7:52 AM 57.9 °F - 19.9 °F 23% 29.77 in 10.0 mi ENE 4.6 mph - N/A   Clear
8:52 AM 61.0 °F - 21.9 °F 22% 29.77 in 10.0 mi Calm Calm - N/A   Clear
9:52 AM 62.1 °F - 23.0 °F 22% 29.77 in 10.0 mi North 3.5 mph - N/A   Clear
10:52 AM 63.0 °F - 26.1 °F 25% 29.76 in 10.0 mi WNW 4.6 mph - N/A   Clear
11:52 AM 64.0 °F - 26.1 °F 24% 29.78 in 10.0 mi Variable 3.5 mph - N/A   Clear
12:52 PM 66.9 °F - 23.0 °F 19% 29.75 in 10.0 mi Variable 6.9 mph - N/A   Clear
1:52 PM 66.0 °F - 28.0 °F 24% 29.74 in 10.0 mi Variable 6.9 mph - N/A   Clear
2:52 PM 66.9 °F - 30.9 °F 26% 29.73 in 10.0 mi NW 4.6 mph - N/A   Clear
3:52 PM 64.9 °F - 30.0 °F 27% 29.74 in 10.0 mi NE 10.4 mph 17.3 mph N/A   Clear
4:52 PM 60.1 °F - 26.1 °F 27% 29.79 in 10.0 mi NE 8.1 mph 24.2 mph N/A   Clear
5:52 PM 55.9 °F - 21.0 °F 26% 29.81 in 10.0 mi NE 12.7 mph 25.3 mph N/A   Clear
6:52 PM 50.0 °F - 18.0 °F 28% 29.86 in 10.0 mi NE 13.8 mph 34.5 mph N/A   Clear
7:52 PM 48.9 °F - 19.9 °F 32% 29.85 in 10.0 mi ENE 12.7 mph 27.6 mph N/A   Clear
8:52 PM 46.9 °F - 16.0 °F 29% 29.87 in 10.0 mi ENE 19.6 mph 38.0 mph N/A   Clear
9:52 PM 46.0 °F - 12.0 °F 25% 29.92 in 10.0 mi North - - N/A   Clear
10:52 PM 45.0 °F 38.5 °F 10.9 °F 25% 29.90 in 10.0 mi East 13.8 mph 25.3 mph N/A   Clear
11:52 PM 45.0 °F 38.2 °F 10.9 °F 25% 29.88 in 10.0 mi East 15.0 mph 29.9 mph N/A   Clear